Weather History for Cherry Point, NC

Change the Weather History Date:

Friday, October 5, 2012

  Actual Average Record
Temperature  
Mean Temperature 74 °F -  
Max Temperature 82 °F 75 °F 90 °F (2002)
Min Temperature 64 °F 57 °F 48 °F (2011)
Cooling Degree Days 8    
Growing Degree Days 24 (Base 50)    
Moisture  
Dew Point 63 °F    
Average Humidity 77    
Maximum Humidity 90    
Minimum Humidity 49    
Precipitation  
Precipitation 0.00 in - - ()
Sea Level Pressure  
Sea Level Pressure 30.10 in    
Wind  
Wind Speed 3 mph ()    
Max Wind Speed 7 mph    
Max Gust Speed -    
Visibility 9.5 miles    
Events      
Averages and records for this station are not official NWS values.
T = Trace of Precipitation, MM = Missing Value Source: Averaged Metar Reports

Daily Weather History Graph

Daily Weather History Graph

Search for Another Location

Airport:

Trip Planner

Search our weather history database for the weather conditions in past years. The results will help you decide how hot, cold, wet, or windy it might be!

Date:

Astronomy

Oct. 05, 2012 Rise Set
Actual Time 7:05 AM EDT 6:45 PM EDT
Civil Twilight 6:40 AM EDT 7:10 PM EDT
Nautical Twilight 6:11 AM EDT 7:39 PM EDT
Astronomical Twilight 5:41 AM EDT 8:09 PM EDT
Moon 10:17 PM EDT (10/5) 12:00 PM EDT (10/5)
Length of Visible Light 12h 30m
Length of Day
11h 39m
Waning Gibbous, 74% of the Moon is Illuminated
Oct 5
Waning Gibbous
Oct 8
Last Quarter
Oct 15
New
Oct 21
First Quarter
Oct 29
Full

Hourly Weather History & Observations

Time (EDT) Temp. Heat Index Dew Point Humidity Pressure Visibility Wind Dir Wind Speed Gust Speed Precip Events Conditions
12:54 AM 70.0 °F - 64.9 °F 84% 30.15 in 10.0 mi WNW 5.8 mph - N/A   Clear
1:54 AM 68.0 °F - 64.9 °F 90% 30.15 in 10.0 mi Calm Calm - N/A   Clear
2:54 AM 68.0 °F - 64.0 °F 87% 30.14 in 10.0 mi WNW 5.8 mph - N/A   Clear
3:54 AM 68.0 °F - 64.0 °F 87% 30.12 in 10.0 mi NW 3.5 mph - N/A   Clear
4:54 AM 68.0 °F - 64.0 °F 87% 30.13 in 10.0 mi NW 4.6 mph - N/A   Clear
5:54 AM 66.9 °F - 64.0 °F 90% 30.14 in 9.0 mi WNW 4.6 mph - N/A   Clear
6:54 AM 66.9 °F - 63.0 °F 87% 30.14 in 9.0 mi WNW 4.6 mph - N/A   Clear
7:54 AM 68.0 °F - 63.0 °F 84% 30.14 in 8.0 mi NNW 5.8 mph - N/A   Mostly Cloudy
8:54 AM 69.1 °F - 64.0 °F 84% 30.14 in 8.0 mi NNW 3.5 mph - N/A   Mostly Cloudy
9:54 AM 73.9 °F - 62.1 °F 66% 30.14 in 10.0 mi North 3.5 mph - N/A   Mostly Cloudy
10:54 AM 73.0 °F - 62.1 °F 68% 30.14 in 10.0 mi North 4.6 mph - N/A   Mostly Cloudy
11:54 AM 77.0 °F - 62.1 °F 60% 30.13 in 10.0 mi Calm Calm - N/A   Clear
12:54 PM 78.1 °F - 61.0 °F 56% 30.11 in 10.0 mi NE 3.5 mph - N/A   Mostly Cloudy
1:54 PM 80.1 °F 81.7 °F 64.0 °F 58% 30.09 in 10.0 mi ENE 5.8 mph - N/A   Clear
2:54 PM 79.0 °F - 62.1 °F 56% 30.07 in 10.0 mi Calm Calm - N/A   Partly Cloudy
3:54 PM 81.0 °F 81.6 °F 60.1 °F 49% 30.06 in 10.0 mi East 4.6 mph - N/A   Clear
4:54 PM 78.1 °F - 63.0 °F 60% 30.04 in 10.0 mi ENE 4.6 mph - N/A   Scattered Clouds
5:54 PM 75.0 °F - 64.9 °F 71% 30.04 in 10.0 mi SE 6.9 mph - N/A   Mostly Cloudy
6:54 PM 72.0 °F - 64.9 °F 78% 30.04 in 10.0 mi South 3.5 mph - N/A   Partly Cloudy
7:26 PM 69.8 °F - 64.4 °F 83% 30.05 in 10.0 mi South 3.5 mph - N/A   Partly Cloudy
7:54 PM 69.1 °F - 64.9 °F 87% 30.04 in 10.0 mi SSW 3.5 mph - N/A   Scattered Clouds
8:54 PM 68.0 °F - 64.9 °F 90% 30.05 in 9.0 mi Calm Calm - N/A   Mostly Cloudy
9:54 PM 68.0 °F - 64.0 °F 87% 30.05 in 10.0 mi Calm Calm - N/A   Clear
10:54 PM 66.9 °F - 63.0 °F 87% 30.05 in 9.0 mi Calm Calm - N/A   Clear
11:54 PM 64.9 °F - 62.1 °F 90% 30.04 in 6.0 mi ESE 4.6 mph - N/A   Clear